"Period start","avg(HW err(1)/warn(2) (#))","avg(Visibility (m))","avg(Weather code (#))","avg(Precip intensity (mm/h))","min(HW err(1)/warn(2) (#))","max(HW err(1)/warn(2) (#))","std(HW err(1)/warn(2) (#))","med(HW err(1)/warn(2) (#))","min(Visibility (m))","max(Visibility (m))","std(Visibility (m))","med(Visibility (m))","min(Weather code (#))","max(Weather code (#))","std(Weather code (#))","med(Weather code (#))","min(Precip intensity (mm/h))","max(Precip intensity (mm/h))","std(Precip intensity (mm/h))","med(Precip intensity (mm/h))"
2014-04-21 00:00:00,2,44642,0,0.00,2,2,0,2,33042,50000,6112,46108,0,0,0,0,0.00,0.00,0.00,0.00
2014-04-21 00:10:00,2,43042,0,0.00,2,2,0,2,32216,50000,7481,46556,0,0,0,0,0.00,0.00,0.00,0.00
2014-04-21 00:20:00,2,38346,0,0.00,2,2,0,2,29794,50000,6050,37340,0,0,0,0,0.00,0.00,0.00,0.00
2014-04-21 00:30:00,2,47944,0,0.00,2,2,0,2,44387,50000,2172,48806,0,0,0,0,0.00,0.00,0.00,0.00
2014-04-21 00:40:00,2,47090,0,0.00,2,2,0,2,40559,50000,3339,48388,0,0,0,0,0.00,0.00,0.00,0.00
2014-04-21 00:50:00,2,35966,0,0.00,2,2,0,2,18902,50000,8782,36655,0,0,0,0,0.00,0.00,0.00,0.00
2014-04-21 01:00:00,2,41271,0,0.00,2,2,0,2,35460,48296,4172,42368,0,0,0,0,0.00,0.00,0.00,0.00
2014-04-21 01:10:00,2,42880,0,0.00,2,2,0,2,32737,50000,6309,43940,0,0,0,0,0.00,0.00,0.00,0.00
2014-04-21 01:20:00,2,43762,0,0.00,2,2,0,2,31172,50000,7428,47593,0,0,0,0,0.00,0.00,0.00,0.00
2014-04-21 01:30:00,2,45894,0,0.00,2,2,0,2,32880,50000,4857,46787,0,0,0,0,0.00,0.00,0.00,0.00
2014-04-21 01:40:00,2,44142,0,0.00,2,2,0,2,41406,50000,2473,43674,0,0,0,0,0.00,0.00,0.00,0.00
2014-04-21 01:50:00,2,41462,0,0.00,2,2,0,2,29364,50000,7628,44624,0,0,0,0,0.00,0.00,0.00,0.00
2014-04-21 02:00:00,2,41603,0,0.00,2,2,0,2,37209,50000,4336,40895,0,0,0,0,0.00,0.00,0.00,0.00
2014-04-21 02:10:00,2,37107,0,0.00,2,2,0,2,25583,49101,7693,36772,0,0,0,0,0.00,0.00,0.00,0.00
2014-04-21 02:20:00,2,44337,0,0.00,2,2,0,2,24836,50000,7649,47586,0,0,0,0,0.00,0.00,0.00,0.00
2014-04-21 02:30:00,2,43708,0,0.00,2,2,0,2,26174,50000,7297,45995,0,0,0,0,0.00,0.00,0.00,0.00
2014-04-21 02:40:00,2,36494,0,0.00,2,2,0,2,28019,49687,6100,37183,0,0,0,0,0.00,0.00,0.00,0.00
2014-04-21 02:50:00,2,39477,0,0.00,2,2,0,2,31684,47755,5335,40722,0,0,0,0,0.00,0.00,0.00,0.00
2014-04-21 03:00:00,2,43710,0,0.00,2,2,0,2,33839,50000,5263,43908,0,0,0,0,0.00,0.00,0.00,0.00
2014-04-21 03:10:00,2,33536,0,0.00,2,2,0,2,21494,50000,8360,32622,0,0,0,0,0.00,0.00,0.00,0.00
2014-04-21 03:20:00,2,34980,0,0.00,2,2,0,2,17594,50000,12091,36546,0,0,0,0,0.00,0.00,0.00,0.00
2014-04-21 03:30:00,2,34356,0,0.00,2,2,0,2,24581,44279,6709,33034,0,0,0,0,0.00,0.00,0.00,0.00
2014-04-21 03:40:00,2,34882,0,0.00,2,2,0,2,25901,42036,4900,36322,0,0,0,0,0.00,0.00,0.00,0.00
2014-04-21 03:50:00,2,39064,0,0.00,2,2,0,2,26745,50000,6963,38404,0,0,0,0,0.00,0.00,0.00,0.00
2014-04-21 04:00:00,2,34688,0,0.00,2,2,0,2,25328,50000,7785,32540,0,0,0,0,0.00,0.00,0.00,0.00
2014-04-21 04:10:00,2,36049,0,0.00,2,2,0,2,24388,50000,8603,39056,0,0,0,0,0.00,0.00,0.00,0.00
2014-04-21 04:20:00,2,34570,0,0.00,2,2,0,2,26106,49001,6772,34534,0,0,0,0,0.00,0.00,0.00,0.00
2014-04-21 04:30:00,2,42062,0,0.00,2,2,0,2,38114,47953,3370,41066,0,0,0,0,0.00,0.00,0.00,0.00
2014-04-21 04:40:00,2,36570,0,0.00,2,2,0,2,19077,50000,10362,38349,0,0,0,0,0.00,0.00,0.00,0.00
2014-04-21 04:50:00,2,40348,0,0.00,2,2,0,2,26898,50000,8345,39686,0,0,0,0,0.00,0.00,0.00,0.00
2014-04-21 05:00:00,2,34853,0,0.00,2,2,0,2,23049,50000,7422,33145,0,0,0,0,0.00,0.00,0.00,0.00
2014-04-21 05:10:00,2,44522,0,0.00,2,2,0,2,29584,50000,7628,49850,0,0,0,0,0.00,0.00,0.00,0.00
2014-04-21 05:20:00,2,35959,0,0.00,2,2,0,2,20866,50000,11404,34364,0,0,0,0,0.00,0.00,0.00,0.00
2014-04-21 05:30:00,2,31507,0,0.00,2,2,0,2,21401,42178,5891,30626,0,0,0,0,0.00,0.00,0.00,0.00
2014-04-21 05:40:00,2,29614,0,0.00,2,2,0,2,19029,41290,6355,30668,0,0,0,0,0.00,0.00,0.00,0.00
2014-04-21 05:50:00,2,37548,0,0.00,2,2,0,2,17964,50000,9918,37990,0,0,0,0,0.00,0.00,0.00,0.00
2014-04-21 06:00:00,2,41166,0,0.00,2,2,0,2,24494,50000,6388,43110,0,0,0,0,0.00,0.00,0.00,0.00
2014-04-21 06:10:00,2,37290,0,0.00,2,2,0,2,20633,50000,8940,35269,0,0,0,0,0.00,0.00,0.00,0.00
2014-04-21 06:20:00,2,41122,0,0.00,2,2,0,2,29277,50000,7062,42573,0,0,0,0,0.00,0.00,0.00,0.00
2014-04-21 06:30:00,2,35950,0,0.00,2,2,0,2,26525,47568,5347,35691,0,0,0,0,0.00,0.00,0.00,0.00
2014-04-21 06:40:00,2,37944,0,0.00,2,2,0,2,24113,47155,7048,36984,0,0,0,0,0.00,0.00,0.00,0.00
2014-04-21 06:50:00,2,34782,0,0.00,2,2,0,2,23384,50000,8708,31442,0,0,0,0,0.00,0.00,0.00,0.00
2014-04-21 07:00:00,2,41209,0,0.00,2,2,0,2,20826,50000,9378,43566,0,0,0,0,0.00,0.00,0.00,0.00
2014-04-21 07:10:00,2,46180,0,0.00,2,2,0,2,35016,50000,5540,49754,0,0,0,0,0.00,0.00,0.00,0.00
2014-04-21 07:20:00,2,42924,0,0.00,2,2,0,2,31754,50000,6233,43567,0,0,0,0,0.00,0.00,0.00,0.00
2014-04-21 07:30:00,2,39415,0,0.00,2,2,0,2,29940,48813,4903,39108,0,0,0,0,0.00,0.00,0.00,0.00
2014-04-21 07:40:00,2,36978,0,0.00,2,2,0,2,25876,48822,6995,38976,0,0,0,0,0.00,0.00,0.00,0.00
2014-04-21 07:50:00,2,43187,0,0.00,2,2,0,2,26384,50000,7023,43046,0,0,0,0,0.00,0.00,0.00,0.00
2014-04-21 08:00:00,2,35082,0,0.00,2,2,0,2,25528,48902,7254,33616,0,0,0,0,0.00,0.00,0.00,0.00
2014-04-21 08:10:00,2,38580,0,0.00,2,2,0,2,27715,47217,6322,39392,0,0,0,0,0.00,0.00,0.00,0.00
2014-04-21 08:20:00,2,45896,0,0.00,2,2,0,2,37756,50000,4022,47046,0,0,0,0,0.00,0.00,0.00,0.00
2014-04-21 08:30:00,2,45754,0,0.00,2,2,0,2,39217,50000,3298,45324,0,0,0,0,0.00,0.00,0.00,0.00
2014-04-21 08:40:00,2,46640,0,0.00,2,2,0,2,39834,50000,3970,49332,0,0,0,0,0.00,0.00,0.00,0.00
2014-04-21 08:50:00,2,47608,0,0.00,2,2,0,2,35308,50000,4302,49500,0,0,0,0,0.00,0.00,0.00,0.00
2014-04-21 09:00:00,2,46018,0,0.00,2,2,0,2,38606,50000,3911,47347,0,0,0,0,0.00,0.00,0.00,0.00
2014-04-21 09:10:00,2,45538,0,0.00,2,2,0,2,41027,50000,2821,45387,0,0,0,0,0.00,0.00,0.00,0.00
2014-04-21 09:20:00,2,46326,0,0.00,2,2,0,2,35868,50000,4943,49706,0,0,0,0,0.00,0.00,0.00,0.00
2014-04-21 09:30:00,2,48712,0,0.00,2,2,0,2,45585,50000,1761,49833,0,0,0,0,0.00,0.00,0.00,0.00
2014-04-21 09:40:00,2,46959,0,0.00,2,2,0,2,42191,50000,3219,47960,0,0,0,0,0.00,0.00,0.00,0.00
2014-04-21 09:50:00,2,48588,0,0.00,2,2,0,2,42675,50000,2592,50000,0,0,0,0,0.00,0.00,0.00,0.00
2014-04-21 10:00:00,2,46188,0,0.00,2,2,0,2,39926,50000,3262,46244,0,0,0,0,0.00,0.00,0.00,0.00
2014-04-21 10:10:00,2,46981,0,0.00,2,2,0,2,40307,50000,4002,49442,0,0,0,0,0.00,0.00,0.00,0.00
2014-04-21 10:20:00,2,47500,0,0.00,2,2,0,2,37078,50000,4225,50000,0,0,0,0,0.00,0.00,0.00,0.00
2014-04-21 10:30:00,2,48671,0,0.00,2,2,0,2,44543,50000,1872,50000,0,0,0,0,0.00,0.00,0.00,0.00
2014-04-21 10:40:00,2,49862,0,0.00,2,2,0,2,49266,50000,277,50000,0,0,0,0,0.00,0.00,0.00,0.00
2014-04-21 10:50:00,2,48091,0,0.00,2,2,0,2,42096,50000,2759,49772,0,0,0,0,0.00,0.00,0.00,0.00
2014-04-21 11:00:00,2,50000,0,0.00,2,2,0,2,50000,50000,0,50000,0,0,0,0,0.00,0.00,0.00,0.00
2014-04-21 11:10:00,2,50000,0,0.00,2,2,0,2,50000,50000,0,50000,0,0,0,0,0.00,0.00,0.00,0.00
2014-04-21 11:20:00,2,47664,0,0.00,2,2,0,2,42173,50000,2631,48619,0,0,0,0,0.00,0.00,0.00,0.00
2014-04-21 11:30:00,2,49958,0,0.00,2,2,0,2,49584,50000,125,50000,0,0,0,0,0.00,0.00,0.00,0.00
2014-04-21 11:40:00,2,49746,0,0.00,2,2,0,2,47456,50000,763,50000,0,0,0,0,0.00,0.00,0.00,0.00
2014-04-21 11:50:00,2,49641,0,0.00,2,2,0,2,46412,50000,1076,50000,0,0,0,0,0.00,0.00,0.00,0.00
2014-04-21 12:00:00,2,49942,0,0.00,2,2,0,2,49516,50000,145,50000,0,0,0,0,0.00,0.00,0.00,0.00
2014-04-21 12:10:00,2,49627,0,0.00,2,2,0,2,46267,50000,1120,50000,0,0,0,0,0.00,0.00,0.00,0.00
2014-04-21 12:20:00,2,49914,0,0.00,2,2,0,2,49136,50000,259,50000,0,0,0,0,0.00,0.00,0.00,0.00
2014-04-21 12:30:00,2,50000,0,0.00,2,2,0,2,50000,50000,0,50000,0,0,0,0,0.00,0.00,0.00,0.00
2014-04-21 12:40:00,2,49980,0,0.00,2,2,0,2,49863,50000,43,50000,0,0,0,0,0.00,0.00,0.00,0.00
2014-04-21 12:50:00,2,49955,0,0.00,2,2,0,2,49554,50000,134,50000,0,0,0,0,0.00,0.00,0.00,0.00
2014-04-21 13:00:00,2,50000,0,0.00,2,2,0,2,50000,50000,0,50000,0,0,0,0,0.00,0.00,0.00,0.00
2014-04-21 13:10:00,2,49994,0,0.00,2,2,0,2,49938,50000,19,50000,0,0,0,0,0.00,0.00,0.00,0.00
2014-04-21 13:20:00,2,49014,0,0.00,2,2,0,2,43515,50000,2091,50000,0,0,0,0,0.00,0.00,0.00,0.00
2014-04-21 13:30:00,2,48106,0,0.00,2,2,0,2,44578,50000,1672,48137,0,0,0,0,0.00,0.00,0.00,0.00
2014-04-21 13:40:00,2,43430,0,0.00,2,2,0,2,40338,46637,2212,42451,0,0,0,0,0.00,0.00,0.00,0.00
2014-04-21 13:50:00,2,47046,0,0.00,2,2,0,2,39755,50000,3283,48107,0,0,0,0,0.00,0.00,0.00,0.00
2014-04-21 14:00:00,2,45831,0,0.00,2,2,0,2,40781,50000,3435,46890,0,0,0,0,0.00,0.00,0.00,0.00
2014-04-21 14:10:00,2,44670,0,0.00,2,2,0,2,34468,50000,4636,44254,0,0,0,0,0.00,0.00,0.00,0.00
2014-04-21 14:20:00,2,42043,0,0.00,2,2,0,2,37436,47768,3208,42290,0,0,0,0,0.00,0.00,0.00,0.00
2014-04-21 14:30:00,2,38476,0,0.00,2,2,0,2,34518,44355,2808,38365,0,0,0,0,0.00,0.00,0.00,0.00
2014-04-21 14:40:00,2,39124,0,0.00,2,2,0,2,34940,46069,3384,38325,0,0,0,0,0.00,0.00,0.00,0.00
2014-04-21 14:50:00,2,40095,0,0.00,2,2,0,2,36606,44966,2674,40377,0,0,0,0,0.00,0.00,0.00,0.00
2014-04-21 15:00:00,2,40436,0,0.00,2,2,0,2,31993,50000,5062,41055,0,0,0,0,0.00,0.00,0.00,0.00
2014-04-21 15:10:00,2,39206,0,0.00,2,2,0,2,33734,46918,4523,37278,0,0,0,0,0.00,0.00,0.00,0.00
2014-04-21 15:20:00,2,37494,0,0.00,2,2,0,2,33008,44989,3656,36040,0,0,0,0,0.00,0.00,0.00,0.00
2014-04-21 15:30:00,2,47216,0,0.00,2,2,0,2,42715,50000,2926,47884,0,0,0,0,0.00,0.00,0.00,0.00
2014-04-21 15:40:00,2,46479,0,0.00,2,2,0,2,39791,50000,3564,48482,0,0,0,0,0.00,0.00,0.00,0.00
2014-04-21 15:50:00,2,49508,0,0.00,2,2,0,2,48223,50000,693,50000,0,0,0,0,0.00,0.00,0.00,0.00
2014-04-21 16:00:00,2,46475,0,0.00,2,2,0,2,42305,50000,2646,46739,0,0,0,0,0.00,0.00,0.00,0.00
2014-04-21 16:10:00,2,48053,0,0.00,2,2,0,2,41627,50000,3137,50000,0,0,0,0,0.00,0.00,0.00,0.00
2014-04-21 16:20:00,2,47358,0,0.00,2,2,0,2,43503,50000,2316,47820,0,0,0,0,0.00,0.00,0.00,0.00
2014-04-21 16:30:00,2,47402,0,0.00,2,2,0,2,40983,50000,3438,49504,0,0,0,0,0.00,0.00,0.00,0.00
2014-04-21 16:40:00,2,47724,0,0.00,2,2,0,2,40078,50000,2963,48881,0,0,0,0,0.00,0.00,0.00,0.00
2014-04-21 16:50:00,2,49746,0,0.00,2,2,0,2,48223,50000,545,50000,0,0,0,0,0.00,0.00,0.00,0.00
2014-04-21 17:00:00,2,49909,0,0.00,2,2,0,2,49690,50000,139,50000,0,0,0,0,0.00,0.00,0.00,0.00
2014-04-21 17:10:00,2,50000,0,0.00,2,2,0,2,50000,50000,0,50000,0,0,0,0,0.00,0.00,0.00,0.00
2014-04-21 17:20:00,2,48031,0,0.00,2,2,0,2,44835,50000,1958,48466,0,0,0,0,0.00,0.00,0.00,0.00
2014-04-21 17:30:00,2,49593,0,0.00,2,2,0,2,47847,50000,730,50000,0,0,0,0,0.00,0.00,0.00,0.00
2014-04-21 17:40:00,2,49697,0,0.00,2,2,0,2,48312,50000,554,50000,0,0,0,0,0.00,0.00,0.00,0.00
2014-04-21 17:50:00,2,49616,0,0.00,2,2,0,2,47909,50000,669,50000,0,0,0,0,0.00,0.00,0.00,0.00
2014-04-21 18:00:00,2,49388,0,0.00,2,2,0,2,47654,50000,949,50000,0,0,0,0,0.00,0.00,0.00,0.00
2014-04-21 18:10:00,2,49379,0,0.00,2,2,0,2,47862,50000,793,50000,0,0,0,0,0.00,0.00,0.00,0.00
2014-04-21 18:20:00,2,49573,0,0.00,2,2,0,2,46343,50000,1088,50000,0,0,0,0,0.00,0.00,0.00,0.00
2014-04-21 18:30:00,2,49621,0,0.00,2,2,0,2,47909,50000,649,50000,0,0,0,0,0.00,0.00,0.00,0.00
2014-04-21 18:40:00,2,49967,0,0.00,2,2,0,2,49771,50000,72,50000,0,0,0,0,0.00,0.00,0.00,0.00
2014-04-21 18:50:00,2,49903,0,0.00,2,2,0,2,49027,50000,292,50000,0,0,0,0,0.00,0.00,0.00,0.00
2014-04-21 19:00:00,2,46122,0,0.00,2,2,0,2,38939,50000,3440,46282,0,0,0,0,0.00,0.00,0.00,0.00
2014-04-21 19:10:00,2,45687,0,0.00,2,2,0,2,41093,50000,2906,45851,0,0,0,0,0.00,0.00,0.00,0.00
2014-04-21 19:20:00,2,48062,0,0.00,2,2,0,2,40752,50000,3038,49590,0,0,0,0,0.00,0.00,0.00,0.00
2014-04-21 19:30:00,2,48756,0,0.00,2,2,0,2,45084,50000,1471,48984,0,0,0,0,0.00,0.00,0.00,0.00
2014-04-21 19:40:00,2,47883,0,0.00,2,2,0,2,43539,50000,2155,48898,0,0,0,0,0.00,0.00,0.00,0.00
2014-04-21 19:50:00,2,47576,0,0.00,2,2,0,2,43165,50000,2491,47889,0,0,0,0,0.00,0.00,0.00,0.00
2014-04-21 20:00:00,2,48371,0,0.00,2,2,0,2,43533,50000,2298,49676,0,0,0,0,0.00,0.00,0.00,0.00
2014-04-21 20:10:00,2,46122,0,0.00,2,2,0,2,39429,50000,3303,46625,0,0,0,0,0.00,0.00,0.00,0.00
2014-04-21 20:20:00,2,43675,0,0.00,2,2,0,2,35010,50000,5882,44347,0,0,0,0,0.00,0.00,0.00,0.00
2014-04-21 20:30:00,2,43072,0,0.00,2,2,0,2,33465,47436,4263,44824,0,0,0,0,0.00,0.00,0.00,0.00
2014-04-21 20:40:00,2,41964,0,0.00,2,2,0,2,36288,50000,4376,40544,0,0,0,0,0.00,0.00,0.00,0.00
2014-04-21 20:50:00,2,41533,0,0.00,2,2,0,2,32635,47822,3973,41809,0,0,0,0,0.00,0.00,0.00,0.00
2014-04-21 21:00:00,2,43853,0,0.00,2,2,0,2,37267,50000,4396,44218,0,0,0,0,0.00,0.00,0.00,0.00
2014-04-21 21:10:00,2,41605,0,0.00,2,2,0,2,32259,48611,5413,41073,0,0,0,0,0.00,0.00,0.00,0.00
2014-04-21 21:20:00,2,36806,0,0.00,2,2,0,2,31649,44556,4632,34483,0,0,0,0,0.00,0.00,0.00,0.00
2014-04-21 21:30:00,2,37616,0,0.00,2,2,0,2,22920,48262,6886,37762,0,0,0,0,0.00,0.00,0.00,0.00
2014-04-21 21:40:00,2,41352,0,0.00,2,2,0,2,35128,47916,4465,40148,0,0,0,0,0.00,0.00,0.00,0.00
2014-04-21 21:50:00,2,38845,0,0.00,2,2,0,2,24547,48447,7210,38478,0,0,0,0,0.00,0.00,0.00,0.00
2014-04-21 22:00:00,2,37600,0,0.00,2,2,0,2,28147,47904,6030,36956,0,0,0,0,0.00,0.00,0.00,0.00
2014-04-21 22:10:00,2,46541,0,0.00,2,2,0,2,37705,50000,4941,50000,0,0,0,0,0.00,0.00,0.00,0.00
2014-04-21 22:20:00,2,45653,0,0.00,2,2,0,2,38964,50000,3835,46777,0,0,0,0,0.00,0.00,0.00,0.00
2014-04-21 22:30:00,2,41816,0,0.00,2,2,0,2,27313,49776,6248,42543,0,0,0,0,0.00,0.00,0.00,0.00
2014-04-21 22:40:00,2,43404,0,0.00,2,2,0,2,36558,50000,5011,43069,0,0,0,0,0.00,0.00,0.00,0.00
2014-04-21 22:50:00,2,36829,0,0.00,2,2,0,2,30005,43978,5002,36814,0,0,0,0,0.00,0.00,0.00,0.00
2014-04-21 23:00:00,2,44413,0,0.00,2,2,0,2,36313,50000,3897,45346,0,0,0,0,0.00,0.00,0.00,0.00
2014-04-21 23:10:00,2,39093,0,0.00,2,2,0,2,30334,43483,3493,39408,0,0,0,0,0.00,0.00,0.00,0.00
2014-04-21 23:20:00,2,37374,0,0.00,2,2,0,2,22536,50000,7495,38752,0,0,0,0,0.00,0.00,0.00,0.00
2014-04-21 23:30:00,2,41169,0,0.00,2,2,0,2,31312,50000,5672,41527,0,0,0,0,0.00,0.00,0.00,0.00
2014-04-21 23:40:00,2,39114,0,0.00,2,2,0,2,31084,45256,5028,39002,0,0,0,0,0.00,0.00,0.00,0.00
2014-04-21 23:50:00,2,38613,0,0.00,2,2,0,2,26111,45536,6754,41176,0,0,0,0,0.00,0.00,0.00,0.00
